Tracking 20621 objects as of 31-Mar-2020
HD Live streaming from Space Station
objects crossing your sky now

ORBCOMM FM 15

Track ORBCOMM FM 15 now!
10-day predictions
ORBCOMM FM 15 is classified as:


NORAD ID: 25418
Int'l Code: 1998-046F
Perigee: 786.2 km
Apogee: 791.7 km
Inclination: 45.0 °
Period: 100.5 minutes
Semi major axis: 7159 km
RCS: 0.6025 m2 (medium)
Launch date: August 2, 1998
Source: ORBCOMM (ORB)
Launch site: Pegasus launched from Eastern Range Air Space (ERAS)
aabbcc
Your satellite tracking list
Your tracking list is empty




NASA's NSSDC Master Catalog

Two Line Element Set (TLE):
1 25418U 98046F   20090.71226697  .00000066  00000-0  74749-4 0  9995
2 25418  44.9983 157.4852 0003872 182.3009 333.4722 14.32979419130955
Source of the keplerian elements: AFSPC